,,Stat6,,Stat2,,Stat8,,Stat9,,Stat10,,Wind1,,Wind1,
time,status,PA1M_AVG,status,PR1M_SUM,status,RH1M_AVG,status,SR1M_AVG,status,TA1M_AVG,status,W1dAve1m,status,W1sAve1m,
2009-01-13, 00:00:00,VALID,920.882,VALID,0,VALID,100,VALID,0,VALID,19.8288,VALID,181,VALID,0,
2009-01-13, 00:01:00,VALID,920.869,VALID,0,VALID,100,VALID,-0.0339617,VALID,19.8391,VALID,181,VALID,0,
2009-01-13, 00:02:00,VALID,920.862,VALID,0,VALID,100,VALID,-0.0169808,VALID,19.855,VALID,181,VALID,0,
2009-01-13, 00:03:00,VALID,920.846,VALID,0,VALID,100,VALID,-0.0339617,VALID,19.865,VALID,181,VALID,0,
2009-01-13, 00:04:00,VALID,920.831,VALID,0,VALID,100,VALID,-0.0169808,VALID,19.8748,VALID,181,VALID,0,
2009-01-13, 00:05:00,VALID,920.822,VALID,0,VALID,100,VALID,-0.0169808,VALID,19.8683,VALID,181,VALID,0,
2009-01-13, 00:06:00,VALID,920.804,VALID,0,VALID,100,VALID,-0.0169808,VALID,19.8613,VALID,181,VALID,0,
2009-01-13, 00:07:00,VALID,920.788,VALID,0,VALID,100,VALID,-0.0169808,VALID,19.8069,VALID,181,VALID,0,
2009-01-13, 00:08:00,VALID,920.777,VALID,0,VALID,100,VALID,-0.101885,VALID,19.7337,VALID,181,VALID,0,
2009-01-13, 00:09:00,VALID,920.764,VALID,0,VALID,100,VALID,-0.101885,VALID,19.6818,VALID,181,VALID,0,
2009-01-13, 00:10:00,VALID,920.779,VALID,0,VALID,100,VALID,-0.135847,VALID,19.6362,VALID,181,VALID,0,
2009-01-13, 00:11:00,VALID,920.781,VALID,0,VALID,100,VALID,-0.101885,VALID,19.6294,VALID,181,VALID,0,
2009-01-13, 00:12:00,VALID,920.791,VALID,0,VALID,100,VALID,-0.101885,VALID,19.6459,VALID,181,VALID,0,
2009-01-13, 00:13:00,VALID,920.791,VALID,0,VALID,100,VALID,-0.118866,VALID,19.6489,VALID,181,VALID,0,
2009-01-13, 00:14:00,VALID,920.79,VALID,0,VALID,100,VALID,-0.101885,VALID,19.6916,VALID,181,VALID,0,
2009-01-13, 00:15:00,VALID,920.774,VALID,0,VALID,100,VALID,-0.135847,VALID,19.6911,VALID,181,VALID,0,
2009-01-13, 00:16:00,VALID,920.763,VALID,0,VALID,100,VALID,-0.118866,VALID,19.6843,VALID,181,VALID,0,
2009-01-13, 00:17:00,VALID,920.75,VALID,0,VALID,100,VALID,-0.118866,VALID,19.6813,VALID,181,VALID,0,
2009-01-13, 00:18:00,VALID,920.751,VALID,0,VALID,100,VALID,-0.118866,VALID,19.6748,VALID,177,VALID,0,
2009-01-13, 00:19:00,VALID,920.766,VALID,0,VALID,100,VALID,-0.0849042,VALID,19.6716,VALID,157,VALID,0,
2009-01-13, 00:20:00,VALID,920.783,VALID,0,VALID,100,VALID,-0.118866,VALID,19.6848,VALID,152,VALID,0,
2009-01-13, 00:21:00,VALID,920.798,VALID,0,VALID,100,VALID,-0.101885,VALID,19.6851,VALID,152,VALID,0,
2009-01-13, 00:22:00,VALID,920.796,VALID,0,VALID,100,VALID,-0.101885,VALID,19.6911,VALID,152,VALID,0,
2009-01-13, 00:23:00,VALID,920.787,VALID,0,VALID,100,VALID,-0.118866,VALID,19.6751,VALID,142,VALID,0.118278,
2009-01-13, 00:24:00,VALID,920.77,VALID,0,VALID,100,VALID,-0.118866,VALID,19.6586,VALID,118,VALID,0.0372869,
2009-01-13, 00:25:00,VALID,920.747,VALID,0,VALID,100,VALID,-0.135847,VALID,19.6421,VALID,117,VALID,0,
2009-01-13, 00:26:00,VALID,920.738,VALID,0,VALID,100,VALID,-0.101885,VALID,19.6259,VALID,115,VALID,0,
2009-01-13, 00:27:00,VALID,920.725,VALID,0,VALID,100,VALID,-0.135847,VALID,19.5997,VALID,114,VALID,0,
2009-01-13, 00:28:00,VALID,920.688,VALID,0,VALID,100,VALID,-0.0849042,VALID,19.5743,VALID,104,VALID,0.044779,
2009-01-13, 00:29:00,VALID,920.678,VALID,0,VALID,100,VALID,-0.118866,VALID,19.5583,VALID,106,VALID,0.0334302,
2009-01-13, 00:30:00,VALID,920.643,VALID,0,VALID,100,VALID,-0.101885,VALID,19.5318,VALID,111,VALID,0,
2009-01-13, 00:31:00,VALID,920.625,VALID,0,VALID,100,VALID,-0.118866,VALID,19.5258,VALID,117,VALID,0.00130208,
2009-01-13, 00:32:00,VALID,920.598,VALID,0,VALID,100,VALID,-0.135847,VALID,19.5061,VALID,127,VALID,0,
2009-01-13, 00:33:00,VALID,920.586,VALID,0,VALID,100,VALID,-0.118866,VALID,19.4899,VALID,102,VALID,0.0488735,
2009-01-13, 00:34:00,VALID,920.571,VALID,0,VALID,100,VALID,-0.135847,VALID,19.4834,VALID,106,VALID,0.00109012,
2009-01-13, 00:35:00,VALID,920.563,VALID,0,VALID,100,VALID,-0.101885,VALID,19.4802,VALID,106,VALID,0,
2009-01-13, 00:36:00,VALID,920.557,VALID,0,VALID,100,VALID,-0.118866,VALID,19.4832,VALID,106,VALID,0,
2009-01-13, 00:37:00,VALID,920.561,VALID,0,VALID,100,VALID,-0.101885,VALID,19.4929,VALID,106,VALID,0,
2009-01-13, 00:38:00,VALID,920.565,VALID,0,VALID,100,VALID,0,VALID,19.4884,VALID,106,VALID,0,
2009-01-13, 00:39:00,VALID,920.555,VALID,0,VALID,100,VALID,0,VALID,19.5084,VALID,107,VALID,0,
2009-01-13, 00:40:00,VALID,920.538,VALID,0,VALID,100,VALID,-0.0169808,VALID,19.4979,VALID,116,VALID,0,
2009-01-13, 00:41:00,VALID,920.516,VALID,0,VALID,100,VALID,-0.0169808,VALID,19.4884,VALID,115,VALID,0,
2009-01-13, 00:42:00,VALID,920.49,VALID,0,VALID,100,VALID,0,VALID,19.4852,VALID,114,VALID,0,
2009-01-13, 00:43:00,VALID,920.481,VALID,0,VALID,100,VALID,-0.0339617,VALID,19.4789,VALID,113,VALID,0,
2009-01-13, 00:44:00,VALID,920.465,VALID,0,VALID,100,VALID,0,VALID,19.4622,VALID,105,VALID,0,
2009-01-13, 00:45:00,VALID,920.465,VALID,0,VALID,100,VALID,-0.0339617,VALID,19.4722,VALID,105,VALID,0,
2009-01-13, 00:46:00,VALID,920.462,VALID,0,VALID,100,VALID,-0.0169808,VALID,19.4727,VALID,104,VALID,0,
2009-01-13, 00:47:00,VALID,920.475,VALID,0,VALID,100,VALID,-0.0339617,VALID,19.4527,VALID,101,VALID,0,
2009-01-13, 00:48:00,VALID,920.471,VALID,0,VALID,100,VALID,-0.0169808,VALID,19.4535,VALID,100,VALID,0,
2009-01-13, 00:49:00,VALID,920.487,VALID,0,VALID,100,VALID,0,VALID,19.4427,VALID,100,VALID,0,
2009-01-13, 00:50:00,VALID,920.505,VALID,0,VALID,100,VALID,0,VALID,19.443,VALID,100,VALID,0,
2009-01-13, 00:51:00,VALID,920.522,VALID,0,VALID,100,VALID,0,VALID,19.4492,VALID,100,VALID,0,
2009-01-13, 00:52:00,VALID,920.523,VALID,0,VALID,100,VALID,-0.0169808,VALID,19.4754,VALID,112,VALID,0,
2009-01-13, 00:53:00,VALID,920.512,VALID,0,VALID,100,VALID,-0.0169808,VALID,19.4754,VALID,119,VALID,0,
2009-01-13, 00:54:00,VALID,920.508,VALID,0,VALID,100,VALID,-0.0169808,VALID,19.4792,VALID,119,VALID,0,
2009-01-13, 00:55:00,VALID,920.511,VALID,0,VALID,100,VALID,-0.0339617,VALID,19.4922,VALID,123,VALID,0,
2009-01-13, 00:56:00,VALID,920.503,VALID,0,VALID,100,VALID,-0.0509425,VALID,19.5049,VALID,133,VALID,0,
2009-01-13, 00:57:00,VALID,920.513,VALID,0,VALID,100,VALID,-0.0339617,VALID,19.5246,VALID,139,VALID,0,
2009-01-13, 00:58:00,VALID,920.501,VALID,0,VALID,100,VALID,-0.0509425,VALID,19.5608,VALID,162,VALID,0,
2009-01-13, 00:59:00,VALID,920.519,VALID,0,VALID,100,VALID,-0.0169808,VALID,19.5925,VALID,174,VALID,0,
2009-01-13, 01:00:00,VALID,920.501,VALID,0,VALID,100,VALID,-0.0169808,VALID,19.599,VALID,146,VALID,0,
2009-01-13, 01:01:00,VALID,920.492,VALID,0,VALID,100,VALID,-0.0169808,VALID,19.6087,VALID,156,VALID,0,
2009-01-13, 01:02:00,VALID,920.485,VALID,0,VALID,100,VALID,-0.0509425,VALID,19.6347,VALID,161,VALID,0,
2009-01-13, 01:03:00,VALID,920.481,VALID,0,VALID,100,VALID,-0.0339617,VALID,19.6409,VALID,169,VALID,0,
2009-01-13, 01:04:00,VALID,920.453,VALID,0,VALID,100,VALID,0,VALID,19.6574,VALID,170,VALID,0,
2009-01-13, 01:05:00,VALID,920.436,VALID,0,VALID,100,VALID,-0.0169808,VALID,19.6708,VALID,175,VALID,0,
2009-01-13, 01:06:00,VALID,920.421,VALID,0,VALID,100,VALID,-0.0169808,VALID,19.6866,VALID,183,VALID,0,
2009-01-13, 01:07:00,VALID,920.418,VALID,0,VALID,100,VALID,-0.0169808,VALID,19.6996,VALID,182,VALID,0,
2009-01-13, 01:08:00,VALID,920.411,VALID,0,VALID,100,VALID,-0.0169808,VALID,19.6991,VALID,186,VALID,0,
2009-01-13, 01:09:00,VALID,920.395,VALID,0,VALID,100,VALID,0,VALID,19.709,VALID,204,VALID,0,
2009-01-13, 01:10:00,VALID,920.4,VALID,0,VALID,100,VALID,0,VALID,19.7125,VALID,204,VALID,0,
2009-01-13, 01:11:00,VALID,920.396,VALID,0,VALID,100,VALID,-0.0169808,VALID,19.709,VALID,203,VALID,0,
2009-01-13, 01:12:00,VALID,920.393,VALID,0,VALID,100,VALID,-0.0169808,VALID,19.7025,VALID,196,VALID,0,
2009-01-13, 01:13:00,VALID,920.393,VALID,0,VALID,100,VALID,-0.0679233,VALID,19.6863,VALID,179,VALID,0,
2009-01-13, 01:14:00,VALID,920.405,VALID,0,VALID,100,VALID,-0.0169808,VALID,19.6863,VALID,153,VALID,0,
2009-01-13, 01:15:00,VALID,920.403,VALID,0,VALID,100,VALID,-0.0339617,VALID,19.703,VALID,144,VALID,0,
2009-01-13, 01:16:00,VALID,920.396,VALID,0,VALID,100,VALID,-0.0339617,VALID,19.7158,VALID,162,VALID,0,
2009-01-13, 01:17:00,VALID,920.389,VALID,0,VALID,100,VALID,0,VALID,19.6961,VALID,150,VALID,0.281055,
2009-01-13, 01:18:00,VALID,920.38,VALID,0,VALID,100,VALID,-0.0509425,VALID,19.6699,VALID,139,VALID,0.488459,
2009-01-13, 01:19:00,VALID,920.38,VALID,0,VALID,100,VALID,-0.0339617,VALID,19.6541,VALID,127,VALID,0.093936,
2009-01-13, 01:20:00,VALID,920.397,VALID,0,VALID,100,VALID,-0.0509425,VALID,19.6444,VALID,116,VALID,0.0414807,
2009-01-13, 01:21:00,VALID,920.417,VALID,0,VALID,100,VALID,-0.0169808,VALID,19.6342,VALID,142,VALID,0,
2009-01-13, 01:22:00,VALID,920.43,VALID,0,VALID,100,VALID,0,VALID,19.6379,VALID,141,VALID,0,
2009-01-13, 01:23:00,VALID,920.416,VALID,0,VALID,100,VALID,0,VALID,19.6409,VALID,127,VALID,0,
2009-01-13, 01:24:00,VALID,920.414,VALID,0,VALID,100,VALID,-0.0339617,VALID,19.6282,VALID,99,VALID,0,
2009-01-13, 01:25:00,VALID,920.389,VALID,0,VALID,100,VALID,-0.0169808,VALID,19.6147,VALID,102,VALID,0.155488,
2009-01-13, 01:26:00,VALID,920.361,VALID,0,VALID,100,VALID,-0.0169808,VALID,19.6052,VALID,101,VALID,0,
2009-01-13, 01:27:00,VALID,920.343,VALID,0,VALID,100,VALID,-0.0509425,VALID,19.602,VALID,99,VALID,0,
2009-01-13, 01:28:00,VALID,920.309,VALID,0,VALID,100,VALID,-0.0169808,VALID,19.589,VALID,96,VALID,0,
2009-01-13, 01:29:00,VALID,920.302,VALID,0,VALID,100,VALID,-0.0169808,VALID,19.5857,VALID,91,VALID,0,
2009-01-13, 01:30:00,VALID,920.294,VALID,0,VALID,100,VALID,-0.0169808,VALID,19.599,VALID,90,VALID,0,
2009-01-13, 01:31:00,VALID,920.307,VALID,0,VALID,100,VALID,-0.0169808,VALID,19.5922,VALID,88,VALID,0,
2009-01-13, 01:32:00,VALID,920.297,VALID,0,VALID,100,VALID,-0.0169808,VALID,19.5598,VALID,87,VALID,0,
2009-01-13, 01:33:00,VALID,920.272,VALID,0,VALID,100,VALID,-0.0169808,VALID,19.5338,VALID,80,VALID,0,
2009-01-13, 01:34:00,VALID,920.238,VALID,0,VALID,100,VALID,0,VALID,19.5111,VALID,78,VALID,0,
2009-01-13, 01:35:00,VALID,920.217,VALID,0,VALID,100,VALID,0,VALID,19.4981,VALID,78,VALID,0,
2009-01-13, 01:36:00,VALID,920.187,VALID,0,VALID,100,VALID,0,VALID,19.4689,VALID,78,VALID,0,
2009-01-13, 01:37:00,VALID,920.156,VALID,0,VALID,100,VALID,-0.0169808,VALID,19.4432,VALID,87,VALID,0,
2009-01-13, 01:38:00,VALID,920.145,VALID,0,VALID,100,VALID,0,VALID,19.4203,VALID,90,VALID,0,
2009-01-13, 01:39:00,VALID,920.133,VALID,0,VALID,100,VALID,-0.0169808,VALID,19.4076,VALID,88,VALID,0,
2009-01-13, 01:40:00,VALID,920.105,VALID,0,VALID,100,VALID,0,VALID,19.3881,VALID,87,VALID,0,
2009-01-13, 01:41:00,VALID,920.079,VALID,0,VALID,100,VALID,0,VALID,19.3681,VALID,82,VALID,0,
2009-01-13, 01:42:00,VALID,920.059,VALID,0,VALID,100,VALID,0,VALID,19.3522,VALID,92,VALID,0,
2009-01-13, 01:43:00,VALID,920.042,VALID,0,VALID,100,VALID,0,VALID,19.3424,VALID,100,VALID,0,
2009-01-13, 01:44:00,VALID,920.025,VALID,0,VALID,100,VALID,0,VALID,19.3294,VALID,94,VALID,0,
2009-01-13, 01:45:00,VALID,920.002,VALID,0,VALID,100,VALID,0,VALID,19.323,VALID,95,VALID,0,
2009-01-13, 01:46:00,VALID,920.005,VALID,0,VALID,100,VALID,0,VALID,19.323,VALID,83,VALID,0.00234375,
2009-01-13, 01:47:00,VALID,920.01,VALID,0,VALID,100,VALID,-0.0169808,VALID,19.326,VALID,86,VALID,0.00114329,
2009-01-13, 01:48:00,VALID,920.005,VALID,0,VALID,100,VALID,0.0169808,VALID,19.3225,VALID,95,VALID,0,
2009-01-13, 01:49:00,VALID,920.019,VALID,0,VALID,100,VALID,-0.0339617,VALID,19.3262,VALID,125,VALID,0,
2009-01-13, 01:50:00,VALID,920.034,VALID,0,VALID,100,VALID,0,VALID,19.316,VALID,114,VALID,0,
2009-01-13, 01:51:00,VALID,920.028,VALID,0,VALID,100,VALID,-0.0169808,VALID,19.313,VALID,109,VALID,0,
2009-01-13, 01:52:00,VALID,920.039,VALID,0,VALID,100,VALID,0,VALID,19.3162,VALID,109,VALID,0,
2009-01-13, 01:53:00,VALID,920.036,VALID,0,VALID,100,VALID,0,VALID,19.3197,VALID,107,VALID,0,
2009-01-13, 01:54:00,VALID,920.018,VALID,0,VALID,100,VALID,0,VALID,19.3065,VALID,106,VALID,0,
2009-01-13, 01:55:00,VALID,920.011,VALID,0,VALID,100,VALID,-0.0169808,VALID,19.2905,VALID,106,VALID,0,
2009-01-13, 01:56:00,VALID,919.996,VALID,0,VALID,100,VALID,-0.0169808,VALID,19.2745,VALID,108,VALID,0,
2009-01-13, 01:57:00,VALID,919.98,VALID,0,VALID,100,VALID,0,VALID,19.2581,VALID,109,VALID,0,
2009-01-13, 01:58:00,VALID,919.964,VALID,0,VALID,100,VALID,-0.0339617,VALID,19.2513,VALID,109,VALID,0,
2009-01-13, 01:59:00,VALID,919.95,VALID,0,VALID,100,VALID,0,VALID,19.2354,VALID,115,VALID,0,
2009-01-13, 02:00:00,VALID,919.928,VALID,0,VALID,100,VALID,0,VALID,19.2127,VALID,119,VALID,0.193314,
2009-01-13, 02:01:00,VALID,919.933,VALID,0,VALID,100,VALID,0,VALID,19.1997,VALID,119,VALID,0,
2009-01-13, 02:02:00,VALID,919.924,VALID,0,VALID,100,VALID,-0.0339617,VALID,19.2094,VALID,119,VALID,0,
2009-01-13, 02:03:00,VALID,919.913,VALID,0,VALID,100,VALID,0,VALID,19.1897,VALID,119,VALID,0,
2009-01-13, 02:04:00,VALID,919.908,VALID,0,VALID,100,VALID,-0.0169808,VALID,19.1702,VALID,119,VALID,0,
2009-01-13, 02:05:00,VALID,919.898,VALID,0,VALID,100,VALID,-0.0339617,VALID,19.1413,VALID,133,VALID,0.078125,
2009-01-13, 02:06:00,VALID,919.897,VALID,0,VALID,100,VALID,-0.0339617,VALID,19.1086,VALID,135,VALID,0.00319602,
2009-01-13, 02:07:00,VALID,919.897,VALID,0,VALID,100,VALID,-0.0169808,VALID,19.0822,VALID,132,VALID,0,
2009-01-13, 02:08:00,VALID,919.893,VALID,0,VALID,100,VALID,0.0169808,VALID,19.0732,VALID,138,VALID,0,
2009-01-13, 02:09:00,VALID,919.874,VALID,0,VALID,100,VALID,0,VALID,19.0535,VALID,133,VALID,0,
2009-01-13, 02:10:00,VALID,919.862,VALID,0,VALID,100,VALID,0,VALID,19.0537,VALID,121,VALID,0,
2009-01-13, 02:11:00,VALID,919.859,VALID,0,VALID,100,VALID,-0.0169808,VALID,19.0505,VALID,140,VALID,0,
2009-01-13, 02:12:00,VALID,919.873,VALID,0,VALID,100,VALID,-0.0169808,VALID,19.0537,VALID,141,VALID,0,
2009-01-13, 02:13:00,VALID,919.849,VALID,0,VALID,100,VALID,0,VALID,19.047,VALID,142,VALID,0,
2009-01-13, 02:14:00,VALID,919.849,VALID,0,VALID,100,VALID,0,VALID,19.0375,VALID,143,VALID,0,
2009-01-13, 02:15:00,VALID,919.842,VALID,0,VALID,100,VALID,0,VALID,19.0345,VALID,144,VALID,0,
2009-01-13, 02:16:00,VALID,919.831,VALID,0,VALID,100,VALID,-0.0169808,VALID,18.9948,VALID,139,VALID,0,
2009-01-13, 02:17:00,VALID,919.838,VALID,0,VALID,100,VALID,0,VALID,18.9758,VALID,135,VALID,0,
2009-01-13, 02:18:00,VALID,919.849,VALID,0,VALID,100,VALID,0,VALID,18.9691,VALID,141,VALID,0,
2009-01-13, 02:19:00,VALID,919.835,VALID,0,VALID,100,VALID,-0.0169808,VALID,18.9599,VALID,137,VALID,0,
2009-01-13, 02:20:00,VALID,919.857,VALID,0,VALID,100,VALID,0.0339617,VALID,18.9531,VALID,124,VALID,0,
2009-01-13, 02:21:00,VALID,919.852,VALID,0,VALID,100,VALID,0,VALID,18.9434,VALID,129,VALID,0.0105469,
2009-01-13, 02:22:00,VALID,919.858,VALID,0,VALID,100,VALID,-0.0169808,VALID,18.9404,VALID,131,VALID,0,
2009-01-13, 02:23:00,VALID,919.848,VALID,0,VALID,100,VALID,-0.0169808,VALID,18.9202,VALID,139,VALID,0.233203,
2009-01-13, 02:24:00,VALID,919.844,VALID,0,VALID,100,VALID,0,VALID,18.9172,VALID,147,VALID,0.00228659,
2009-01-13, 02:25:00,VALID,919.839,VALID,0,VALID,100,VALID,0,VALID,18.9175,VALID,148,VALID,0.00130208,
2009-01-13, 02:26:00,VALID,919.829,VALID,0,VALID,100,VALID,0,VALID,18.9012,VALID,152,VALID,0.0609756,
2009-01-13, 02:27:00,VALID,919.828,VALID,0,VALID,100,VALID,0,VALID,18.9045,VALID,152,VALID,0.0178571,
2009-01-13, 02:28:00,VALID,919.81,VALID,0,VALID,100,VALID,-0.0509425,VALID,18.8947,VALID,135,VALID,0.000952744,
2009-01-13, 02:29:00,VALID,919.778,VALID,0,VALID,100,VALID,0,VALID,18.8785,VALID,139,VALID,0.0461128,
2009-01-13, 02:30:00,VALID,919.782,VALID,0,VALID,100,VALID,-0.0509425,VALID,18.8785,VALID,134,VALID,0.0524009,
2009-01-13, 02:31:00,VALID,919.766,VALID,0,VALID,100,VALID,0,VALID,18.872,VALID,134,VALID,0.0517113,
2009-01-13, 02:32:00,VALID,919.758,VALID,0,VALID,100,VALID,-0.0169808,VALID,18.8621,VALID,131,VALID,0.21875,
2009-01-13, 02:33:00,VALID,919.746,VALID,0,VALID,100,VALID,0.0169808,VALID,18.8716,VALID,127,VALID,0,
2009-01-13, 02:34:00,VALID,919.739,VALID,0,VALID,100,VALID,0,VALID,18.8718,VALID,119,VALID,0.0559896,
2009-01-13, 02:35:00,VALID,919.75,VALID,0,VALID,100,VALID,0,VALID,18.8688,VALID,121,VALID,0.0222942,
2009-01-13, 02:36:00,VALID,919.745,VALID,0,VALID,100,VALID,0.0169808,VALID,18.8656,VALID,128,VALID,0.175145,
2009-01-13, 02:37:00,VALID,919.747,VALID,0,VALID,100,VALID,-0.0339617,VALID,18.8785,VALID,131,VALID,0,
2009-01-13, 02:38:00,VALID,919.722,VALID,0,VALID,100,VALID,-0.0339617,VALID,18.8917,VALID,133,VALID,0,
2009-01-13, 02:39:00,VALID,919.718,VALID,0,VALID,100,VALID,0,VALID,18.891,VALID,129,VALID,0,
2009-01-13, 02:40:00,VALID,919.685,VALID,0,VALID,100,VALID,-0.0339617,VALID,18.901,VALID,133,VALID,0.0078125,
2009-01-13, 02:41:00,VALID,919.668,VALID,0,VALID,100,VALID,-0.0169808,VALID,18.8945,VALID,129,VALID,0,
2009-01-13, 02:42:00,VALID,919.665,VALID,0,VALID,100,VALID,-0.0169808,VALID,18.8947,VALID,127,VALID,0,
2009-01-13, 02:43:00,VALID,919.642,VALID,0,VALID,100,VALID,-0.0169808,VALID,18.9077,VALID,129,VALID,0,
2009-01-13, 02:44:00,VALID,919.649,VALID,0,VALID,100,VALID,-0.0169808,VALID,18.8978,VALID,121,VALID,0,
2009-01-13, 02:45:00,VALID,919.656,VALID,0,VALID,100,VALID,-0.0509425,VALID,18.9175,VALID,135,VALID,0,
2009-01-13, 02:46:00,VALID,919.665,VALID,0,VALID,100,VALID,-0.0169808,VALID,18.9175,VALID,134,VALID,0,
2009-01-13, 02:47:00,VALID,919.68,VALID,0,VALID,100,VALID,-0.0339617,VALID,18.9239,VALID,140,VALID,0.0699491,
2009-01-13, 02:48:00,VALID,919.688,VALID,0,VALID,100,VALID,0,VALID,18.9434,VALID,141,VALID,0,
2009-01-13, 02:49:00,VALID,919.689,VALID,0,VALID,100,VALID,-0.0509425,VALID,18.9339,VALID,141,VALID,0,
2009-01-13, 02:50:00,VALID,919.678,VALID,0,VALID,100,VALID,-0.0339617,VALID,18.9369,VALID,153,VALID,0.0982921,
2009-01-13, 02:51:00,VALID,919.677,VALID,0,VALID,100,VALID,-0.0169808,VALID,18.9235,VALID,142,VALID,0.0282738,
2009-01-13, 02:52:00,VALID,919.676,VALID,0,VALID,100,VALID,-0.0339617,VALID,18.9334,VALID,137,VALID,0.0979167,
2009-01-13, 02:53:00,VALID,919.674,VALID,0,VALID,100,VALID,0,VALID,18.9242,VALID,144,VALID,0.00280449,
2009-01-13, 02:54:00,VALID,919.672,VALID,0,VALID,100,VALID,-0.0339617,VALID,18.9302,VALID,159,VALID,0,
2009-01-13, 02:55:00,VALID,919.672,VALID,0,VALID,100,VALID,-0.0169808,VALID,18.9497,VALID,168,VALID,0,
2009-01-13, 02:56:00,VALID,919.657,VALID,0,VALID,100,VALID,0,VALID,18.9629,VALID,158,VALID,0,
2009-01-13, 02:57:00,VALID,919.647,VALID,0,VALID,100,VALID,-0.0169808,VALID,18.9624,VALID,152,VALID,0,
2009-01-13, 02:58:00,VALID,919.628,VALID,0,VALID,100,VALID,-0.0339617,VALID,18.9694,VALID,156,VALID,0,
2009-01-13, 02:59:00,VALID,919.622,VALID,0,VALID,100,VALID,0,VALID,18.9666,VALID,154,VALID,0.220385,
2009-01-13, 03:00:00,VALID,919.611,VALID,0,VALID,100,VALID,-0.0339617,VALID,18.9761,VALID,131,VALID,0.00520833,
2009-01-13, 03:01:00,VALID,919.605,VALID,0,VALID,100,VALID,0,VALID,18.9858,VALID,148,VALID,0,
2009-01-13, 03:02:00,VALID,919.598,VALID,0,VALID,100,VALID,-0.0169808,VALID,18.9826,VALID,122,VALID,0.00093006,
2009-01-13, 03:03:00,VALID,919.609,VALID,0,VALID,100,VALID,0,VALID,18.9826,VALID,139,VALID,0.554315,
2009-01-13, 03:04:00,VALID,919.612,VALID,0,VALID,100,VALID,-0.0339617,VALID,18.9891,VALID,131,VALID,0.193576,
2009-01-13, 03:05:00,VALID,919.613,VALID,0,VALID,100,VALID,-0.0339617,VALID,18.9661,VALID,122,VALID,0.201389,
2009-01-13, 03:06:00,VALID,919.617,VALID,0,VALID,100,VALID,-0.0509425,VALID,18.9731,VALID,131,VALID,0.275856,
2009-01-13, 03:07:00,VALID,919.61,VALID,0,VALID,100,VALID,-0.0849042,VALID,18.9861,VALID,131,VALID,0.0111861,
2009-01-13, 03:08:00,VALID,919.596,VALID,0,VALID,100,VALID,-0.0679233,VALID,18.9955,VALID,138,VALID,0,
2009-01-13, 03:09:00,VALID,919.594,VALID,0,VALID,100,VALID,-0.0169808,VALID,19.002,VALID,142,VALID,0.19798,
2009-01-13, 03:10:00,VALID,919.589,VALID,0,VALID,100,VALID,-0.0339617,VALID,19.015,VALID,138,VALID,0.085747,
2009-01-13, 03:11:00,VALID,919.578,VALID,0,VALID,100,VALID,-0.0509425,VALID,19.0148,VALID,141,VALID,0,
2009-01-13, 03:12:00,VALID,919.577,VALID,0,VALID,100,VALID,-0.0339617,VALID,19.031,VALID,142,VALID,0.0013587,
2009-01-13, 03:13:00,VALID,919.578,VALID,0,VALID,100,VALID,-0.0509425,VALID,19.0312,VALID,139,VALID,0.387835,
2009-01-13, 03:14:00,VALID,919.577,VALID,0,VALID,100,VALID,-0.0509425,VALID,19.041,VALID,144,VALID,0.0142912,
2009-01-13, 03:15:00,VALID,919.574,VALID,0,VALID,100,VALID,-0.0339617,VALID,19.0412,VALID,136,VALID,0.0546875,
2009-01-13, 03:16:00,VALID,919.57,VALID,0,VALID,100,VALID,-0.0339617,VALID,19.0474,VALID,133,VALID,0,
2009-01-13, 03:17:00,VALID,919.565,VALID,0,VALID,100,VALID,-0.0339617,VALID,19.041,VALID,139,VALID,0.00527872,
2009-01-13, 03:18:00,VALID,919.556,VALID,0,VALID,100,VALID,-0.0339617,VALID,19.0407,VALID,137,VALID,0.294965,
2009-01-13, 03:19:00,VALID,919.555,VALID,0,VALID,100,VALID,-0.0339617,VALID,19.0312,VALID,137,VALID,0.111737,
2009-01-13, 03:20:00,VALID,919.547,VALID,0,VALID,100,VALID,-0.0339617,VALID,19.0375,VALID,134,VALID,0.0078125,
2009-01-13, 03:21:00,VALID,919.536,VALID,0,VALID,100,VALID,-0.0509425,VALID,19.0312,VALID,120,VALID,0,
2009-01-13, 03:22:00,VALID,919.527,VALID,0,VALID,100,VALID,-0.0169808,VALID,19.028,VALID,129,VALID,0.208008,
2009-01-13, 03:23:00,VALID,919.517,VALID,0,VALID,100,VALID,-0.101885,VALID,19.0215,VALID,120,VALID,0.122275,
2009-01-13, 03:24:00,VALID,919.51,VALID,0,VALID,100,VALID,-0.0339617,VALID,19.0247,VALID,124,VALID,0.00890262,
2009-01-13, 03:25:00,VALID,919.504,VALID,0,VALID,100,VALID,-0.0169808,VALID,19.0245,VALID,126,VALID,0,
2009-01-13, 03:26:00,VALID,919.491,VALID,0,VALID,100,VALID,-0.0339617,VALID,19.018,VALID,128,VALID,0,
2009-01-13, 03:27:00,VALID,919.481,VALID,0,VALID,100,VALID,-0.0339617,VALID,19.0145,VALID,111,VALID,0,
2009-01-13, 03:28:00,VALID,919.472,VALID,0,VALID,100,VALID,0,VALID,19.0145,VALID,112,VALID,0,
2009-01-13, 03:29:00,VALID,919.467,VALID,0,VALID,100,VALID,-0.0169808,VALID,19.018,VALID,104,VALID,0,
2009-01-13, 03:30:00,VALID,919.448,VALID,0,VALID,100,VALID,-0.0509425,VALID,19.0083,VALID,107,VALID,0.263542,
2009-01-13, 03:31:00,VALID,919.456,VALID,0,VALID,100,VALID,-0.0509425,VALID,19.0053,VALID,104,VALID,0.00223214,
2009-01-13, 03:32:00,VALID,919.44,VALID,0,VALID,100,VALID,-0.0509425,VALID,18.9953,VALID,111,VALID,0.0708576,
2009-01-13, 03:33:00,VALID,919.441,VALID,0,VALID,100,VALID,-0.0509425,VALID,19.002,VALID,122,VALID,0.232851,
2009-01-13, 03:34:00,VALID,919.438,VALID,0,VALID,100,VALID,-0.0509425,VALID,18.999,VALID,128,VALID,0.0535156,
2009-01-13, 03:35:00,VALID,919.411,VALID,0,VALID,100,VALID,-0.101885,VALID,19.0053,VALID,123,VALID,0.136083,
2009-01-13, 03:36:00,VALID,919.407,VALID,0,VALID,100,VALID,-0.0509425,VALID,19.0083,VALID,141,VALID,0.155878,
2009-01-13, 03:37:00,VALID,919.389,VALID,0,VALID,100,VALID,-0.0339617,VALID,19.0215,VALID,151,VALID,0.012718,
2009-01-13, 03:38:00,VALID,919.37,VALID,0,VALID,100,VALID,-0.0169808,VALID,19.0245,VALID,144,VALID,0.155134,
2009-01-13, 03:39:00,VALID,919.362,VALID,0,VALID,100,VALID,-0.0849042,VALID,19.0245,VALID,137,VALID,0.449219,
2009-01-13, 03:40:00,VALID,919.354,VALID,0,VALID,100,VALID,-0.0339617,VALID,19.0312,VALID,149,VALID,0.531783,
2009-01-13, 03:41:00,VALID,919.343,VALID,0,VALID,100,VALID,-0.0679233,VALID,19.005,VALID,137,VALID,0.547585,
2009-01-13, 03:42:00,VALID,919.335,VALID,0,VALID,100,VALID,-0.101885,VALID,18.9988,VALID,139,VALID,0.425223,
2009-01-13, 03:43:00,VALID,919.309,VALID,0,VALID,100,VALID,-0.101885,VALID,19.0088,VALID,168,VALID,0.0963542,
2009-01-13, 03:44:00,VALID,919.299,VALID,0,VALID,100,VALID,-0.0509425,VALID,19.0153,VALID,147,VALID,0.401042,
2009-01-13, 03:45:00,VALID,919.281,VALID,0,VALID,100,VALID,-0.0339617,VALID,18.9888,VALID,136,VALID,0.44082,
2009-01-13, 03:46:00,VALID,919.251,VALID,0,VALID,100,VALID,-0.0849042,VALID,18.9698,VALID,139,VALID,0.285714,
2009-01-13, 03:47:00,VALID,919.219,VALID,0,VALID,100,VALID,-0.0679233,VALID,18.9566,VALID,142,VALID,0.376334,
2009-01-13, 03:48:00,VALID,919.192,VALID,0,VALID,100,VALID,-0.0509425,VALID,18.9402,VALID,140,VALID,1.22493,